Tracking 30923 objects as of 1-Jul-2025
HD Live streaming from Space Station
objects crossing your sky now

GEESAT 1-08

Track GEESAT 1-08 now!
10-day predictions


NORAD ID: 52792
Int'l Code: 2022-058H
Perigee: 582.2 km
Apogee: 587.7 km
Inclination: 50.0 °
Period: 96.2 minutes
Semi major axis: 6955 km
RCS: Unknown
Launch date: June 2, 2022
Source: People's Republic of China (PRC)
Launch site: Xichang Space Center, China (XSC)
Your satellite tracking list
MOLNIYA 2-14
Track 1 satellite(s)




NASA's NSSDC Master Catalog

Two Line Element Set (TLE):
1 52792U 22058H   25181.80586060  .00002544  00000-0  24354-3 0  9998
2 52792  49.9937  47.7299 0003948 290.3653  69.6867 14.96473436167528
Source of the keplerian elements: AFSPC